| time (UTC) | temp C | wind direction | speed KPH | gust KPH | rain 1hr cm | rain 24hr cm | rain mn cm | humidity % | barometer mb |
| 20260506171525 | 11 | 19 | 4.8 | 14.5 | 0.00 | 0.00 | 0.00 | 58 | 1011.1 |
| 20260506170521 | 11 | 19 | 4.8 | 14.5 | 0.00 | 0.00 | 0.00 | 57 | 1011.1 |
| 20260506165517 | 12 | 19 | 4.8 | 14.5 | 0.00 | 0.00 | 0.00 | 57 | 1011.2 |
| 20260506164533 | 11 | 19 | 4.8 | 14.5 | 0.00 | 0.00 | 0.00 | 57 | 1011.1 |
| 20260506163529 | 12 | 19 | 4.8 | 14.5 | 0.00 | 0.00 | 0.00 | 57 | 1011.1 |
| 20260506162525 | 12 | 19 | 4.8 | 14.5 | 0.00 | 0.00 | 0.00 | 56 | 1011.1 |
| 20260506161520 | 12 | 19 | 4.8 | 14.5 | 0.00 | 0.00 | 0.00 | 55 | 1010.9 |
| 20260506160516 | 12 | 19 | 4.8 | 14.5 | 0.00 | 0.00 | 0.00 | 56 | 1011.0 |
| 20260506155532 | 12 | 19 | 4.8 | 14.5 | 0.00 | 0.00 | 0.00 | 55 | 1010.9 |
| 20260506154529 | 13 | 19 | 4.8 | 14.5 | 0.00 | 0.00 | 0.00 | 55 | 1011.0 |
| 20260506153524 | 13 | 19 | 4.8 | 14.5 | 0.00 | 0.00 | 0.00 | 54 | 1010.8 |
| 20260506152520 | 13 | 19 | 4.8 | 14.5 | 0.00 | 0.00 | 0.00 | 53 | 1011.0 |
| 20260506151516 | 14 | 19 | 4.8 | 14.5 | 0.00 | 0.00 | 0.00 | 53 | 1010.9 |
| 20260506150532 | 14 | 19 | 4.8 | 14.5 | 0.00 | 0.00 | 0.00 | 52 | 1010.8 |
| 20260506145527 | 15 | 19 | 4.8 | 14.5 | 0.00 | 0.00 | 0.00 | 51 | 1010.7 |
| 20260506144523 | 16 | 19 | 4.8 | 14.5 | 0.00 | 0.00 | 0.00 | 49 | 1010.8 |
| 20260506143519 | 15 | 19 | 4.8 | 14.5 | 0.00 | 0.00 | 0.00 | 50 | 1010.9 |
| 20260506142535 | 13 | 19 | 4.8 | 14.5 | 0.00 | 0.00 | 0.00 | 53 | 1010.8 |
| 20260506141531 | 14 | 19 | 4.8 | 14.5 | 0.00 | 0.00 | 0.00 | 52 | 1010.8 |
| 20260506140527 | 15 | 19 | 4.8 | 14.5 | 0.00 | 0.00 | 0.00 | 49 | 1010.8 |
| 20260506135522 | 16 | 19 | 4.8 | 14.5 | 0.00 | 0.00 | 0.00 | 43 | 1010.9 |
| 20260506134518 | 15 | 19 | 4.8 | 14.5 | 0.00 | 0.00 | 0.00 | 43 | 1010.8 |
| 20260506133534 | 16 | 19 | 4.8 | 14.5 | 0.00 | 0.00 | 0.00 | 42 | 1010.9 |
| 20260506132530 | 16 | 19 | 4.8 | 14.5 | 0.00 | 0.00 | 0.00 | 41 | 1010.9 |
| 20260506131526 | 17 | 19 | 4.8 | 14.5 | 0.00 | 0.00 | 0.00 | 42 | 1010.8 |
| 20260506130521 | 18 | 19 | 4.8 | 14.5 | 0.00 | 0.00 | 0.00 | 40 | 1011.0 |
| 20260506125517 | 18 | 19 | 4.8 | 14.5 | 0.00 | 0.00 | 0.00 | 40 | 1010.9 |
| 20260506124533 | 17 | 19 | 4.8 | 14.5 | 0.00 | 0.00 | 0.00 | 43 | 1010.8 |
| 20260506123529 | 17 | 19 | 4.8 | 14.5 | 0.00 | 0.00 | 0.00 | 43 | 1011.0 |
| 20260506122525 | 17 | 19 | 4.8 | 14.5 | 0.00 | 0.00 | 0.00 | 44 | 1010.8 |
| 20260506121520 | 16 | 19 | 4.8 | 14.5 | 0.00 | 0.00 | 0.00 | 46 | 1011.0 |
| 20260506120516 | 15 | 19 | 4.8 | 14.5 | 0.00 | 0.00 | 0.00 | 48 | 1011.1 |
| 20260506115532 | 15 | 19 | 4.8 | 14.5 | 0.00 | 0.00 | 0.00 | 50 | 1011.1 |
| 20260506114528 | 14 | 19 | 4.8 | 14.5 | 0.00 | 0.00 | 0.00 | 51 | 1011.2 |
| 20260506113524 | 13 | 19 | 4.8 | 14.5 | 0.00 | 0.00 | 0.00 | 53 | 1011.2 |
| 20260506112520 | 13 | 19 | 4.8 | 14.5 | 0.00 | 0.00 | 0.00 | 52 | 1011.3 |
| 20260506111516 | 13 | 19 | 4.8 | 14.5 | 0.00 | 0.00 | 0.00 | 52 | 1011.2 |
| 20260506110532 | 13 | 19 | 4.8 | 14.5 | 0.00 | 0.00 | 0.00 | 54 | 1011.3 |
| 20260506105528 | 12 | 19 | 4.8 | 14.5 | 0.00 | 0.00 | 0.00 | 54 | 1011.4 |
| 20260506104523 | 12 | 19 | 4.8 | 14.5 | 0.00 | 0.00 | 0.00 | 55 | 1011.5 |
| 20260506103519 | 12 | 19 | 4.8 | 14.5 | 0.00 | 0.00 | 0.00 | 57 | 1011.5 |
| 20260506102534 | 12 | 19 | 4.8 | 14.5 | 0.00 | 0.00 | 0.00 | 59 | 1011.7 |
| 20260506101530 | 11 | 19 | 4.8 | 14.5 | 0.00 | 0.00 | 0.00 | 60 | 1011.7 |
| 20260506100525 | 11 | 19 | 4.8 | 14.5 | 0.00 | 0.00 | 0.00 | 60 | 1011.6 |
| 20260506095521 | 11 | 19 | 4.8 | 14.5 | 0.00 | 0.00 | 0.00 | 59 | 1011.7 |
| 20260506094517 | 11 | 19 | 4.8 | 14.5 | 0.00 | 0.00 | 0.00 | 62 | 1011.8 |
| 20260506093533 | 11 | 19 | 4.8 | 14.5 | 0.00 | 0.00 | 0.00 | 61 | 1011.8 |
| 20260506092529 | 11 | 19 | 4.8 | 14.5 | 0.00 | 0.00 | 0.00 | 61 | 1011.6 |
| 20260506091525 | 11 | 19 | 4.8 | 14.5 | 0.00 | 0.00 | 0.00 | 61 | 1011.9 |
| 20260506090520 | 11 | 19 | 4.8 | 14.5 | 0.00 | 0.00 | 0.00 | 63 | 1011.9 |
| 20260506085516 | 10 | 19 | 4.8 | 14.5 | 0.00 | 0.00 | 0.00 | 63 | 1011.8 |
| 20260506084532 | 10 | 19 | 4.8 | 14.5 | 0.00 | 0.00 | 0.00 | 64 | 1011.9 |
| 20260506083528 | 10 | 19 | 4.8 | 14.5 | 0.00 | 0.00 | 0.00 | 64 | 1011.8 |
| 20260506082524 | 10 | 19 | 4.8 | 14.5 | 0.00 | 0.00 | 0.00 | 65 | 1011.8 |
| 20260506081519 | 10 | 19 | 4.8 | 14.5 | 0.00 | 0.00 | 0.00 | 64 | 1011.7 |
| 20260506080515 | 10 | 19 | 4.8 | 14.5 | 0.00 | 0.00 | 0.00 | 65 | 1011.7 |
| 20260506073523 | 8 | 19 | 4.8 | 14.5 | 0.00 | 0.00 | 0.00 | 69 | 1011.8 |
| 20260506072518 | 8 | 19 | 4.8 | 14.5 | 0.00 | 0.00 | 0.00 | 71 | 1011.7 |
| 20260506071535 | 8 | 19 | 4.8 | 14.5 | 0.00 | 0.00 | 0.00 | 71 | 1011.6 |
| 20260506070530 | 8 | 19 | 4.8 | 14.5 | 0.00 | 0.00 | 0.00 | 72 | 1011.7 |
| 20260506051020 | 3 | 19 | 4.8 | 14.5 | 0.00 | 0.00 | 0.00 | 87 | 1011.6 |
| 20260506045032 | 3 | 19 | 4.8 | 14.5 | 0.00 | 0.00 | 0.00 | 88 | 1011.6 |
| 20260506044029 | 3 | 19 | 4.8 | 14.5 | 0.00 | 0.00 | 0.00 | 88 | 1011.5 |
| 20260506043024 | 3 | 19 | 4.8 | 14.5 | 0.00 | 0.00 | 0.00 | 88 | 1011.5 |
| 20260506042021 | 2 | 19 | 4.8 | 14.5 | 0.00 | 0.00 | 0.00 | 88 | 1011.6 |
| 20260506041016 | 2 | 19 | 4.8 | 14.5 | 0.00 | 0.00 | 0.00 | 88 | 1011.6 |
| 20260506040033 | 2 | 19 | 4.8 | 14.5 | 0.00 | 0.00 | 0.00 | 88 | 1011.6 |
| 20260506035029 | 2 | 19 | 4.8 | 14.5 | 0.00 | 0.00 | 0.00 | 88 | 1011.7 |
| 20260506034025 | 2 | 19 | 4.8 | 14.5 | 0.00 | 0.00 | 0.00 | 88 | 1011.7 |
| 20260506033021 | 2 | 19 | 4.8 | 14.5 | 0.00 | 0.00 | 0.00 | 87 | 1011.9 |
| 20260506032017 | 3 | 19 | 4.8 | 14.5 | 0.00 | 0.00 | 0.00 | 87 | 1011.9 |
| 20260506031033 | 3 | 19 | 4.8 | 14.5 | 0.00 | 0.00 | 0.00 | 87 | 1011.9 |
| 20260506030029 | 3 | 19 | 4.8 | 14.5 | 0.00 | 0.00 | 0.00 | 87 | 1012.1 |
| 20260506025025 | 3 | 19 | 4.8 | 14.5 | 0.00 | 0.00 | 0.00 | 86 | 1012.3 |
| 20260506024021 | 3 | 19 | 4.8 | 14.5 | 0.00 | 0.00 | 0.00 | 86 | 1012.3 |
| 20260506023017 | 3 | 19 | 4.8 | 14.5 | 0.00 | 0.00 | 0.00 | 86 | 1012.3 |
| 20260506022033 | 3 | 19 | 4.8 | 14.5 | 0.00 | 0.00 | 0.00 | 86 | 1012.3 |
| 20260506021030 | 3 | 19 | 4.8 | 14.5 | 0.00 | 0.00 | 0.00 | 86 | 1012.4 |
| 20260506020025 | 3 | 19 | 4.8 | 14.5 | 0.00 | 0.00 | 0.00 | 85 | 1012.3 |
| 20260506015021 | 3 | 19 | 4.8 | 14.5 | 0.00 | 0.00 | 0.00 | 85 | 1012.2 |
| 20260506014017 | 3 | 19 | 4.8 | 14.5 | 0.00 | 0.00 | 0.00 | 85 | 1012.1 |
| 20260506013033 | 3 | 19 | 4.8 | 14.5 | 0.00 | 0.00 | 0.00 | 85 | 1012.0 |
| 20260506012030 | 3 | 19 | 4.8 | 14.5 | 0.00 | 0.00 | 0.00 | 85 | 1012.0 |
| 20260506011026 | 3 | 19 | 4.8 | 14.5 | 0.00 | 0.00 | 0.00 | 85 | 1012.1 |
| 20260506010022 | 3 | 19 | 4.8 | 14.5 | 0.00 | 0.00 | 0.00 | 85 | 1012.1 |
| 20260506005018 | 4 | 19 | 4.8 | 14.5 | 0.00 | 0.00 | 0.00 | 85 | 1011.9 |
| 20260506004034 | 4 | 19 | 4.8 | 14.5 | 0.00 | 0.00 | 0.00 | 84 | 1012.1 |
| 20260506003030 | 4 | 19 | 4.8 | 14.5 | 0.00 | 0.00 | 0.00 | 84 | 1012.0 |
| 20260506002026 | 4 | 19 | 4.8 | 14.5 | 0.00 | 0.00 | 0.00 | 84 | 1012.0 |
| 20260506001022 | 4 | 19 | 4.8 | 14.5 | 0.00 | 0.00 | 0.00 | 84 | 1012.0 |
| 20260506000018 | 4 | 19 | 4.8 | 14.5 | 0.00 | 0.00 | 0.00 | 83 | 1012.1 |
| 20260505235034 | 5 | 19 | 4.8 | 14.5 | 0.00 | 0.00 | 0.00 | 83 | 1012.1 |
| 20260505234030 | 5 | 19 | 4.8 | 14.5 | 0.00 | 0.00 | 0.00 | 83 | 1012.3 |
| 20260505233027 | 5 | 19 | 4.8 | 14.5 | 0.00 | 0.00 | 0.00 | 83 | 1012.2 |
| 20260505232022 | 5 | 19 | 4.8 | 14.5 | 0.00 | 0.00 | 0.00 | 84 | 1012.4 |
| 20260505231019 | 5 | 19 | 4.8 | 14.5 | 0.00 | 0.00 | 0.00 | 84 | 1012.2 |
| 20260505230035 | 5 | 19 | 4.8 | 14.5 | 0.00 | 0.00 | 0.00 | 84 | 1012.2 |
| 20260505225030 | 5 | 19 | 4.8 | 14.5 | 0.00 | 0.00 | 0.00 | 84 | 1012.3 |
| 20260505224027 | 5 | 19 | 4.8 | 14.5 | 0.00 | 0.00 | 0.00 | 84 | 1012.3 |
| 20260505223022 | 5 | 19 | 4.8 | 14.5 | 0.00 | 0.00 | 0.00 | 84 | 1012.5 |
| 20260505222018 | 5 | 19 | 4.8 | 14.5 | 0.00 | 0.00 | 0.00 | 83 | 1012.4 |
| 20260505221035 | 6 | 19 | 4.8 | 14.5 | 0.00 | 0.00 | 0.00 | 83 | 1012.4 |
| 20260505220031 | 6 | 19 | 4.8 | 14.5 | 0.00 | 0.00 | 0.00 | 82 | 1012.2 |
| 20260505215027 | 6 | 19 | 4.8 | 14.5 | 0.00 | 0.00 | 0.00 | 82 | 1012.5 |
| 20260505214023 | 6 | 19 | 4.8 | 14.5 | 0.00 | 0.00 | 0.00 | 81 | 1012.4 |
| 20260505213019 | 6 | 19 | 4.8 | 14.5 | 0.00 | 0.00 | 0.00 | 81 | 1012.5 |
| 20260505212016 | 6 | 19 | 4.8 | 14.5 | 0.00 | 0.00 | 0.00 | 81 | 1012.5 |
| 20260505211032 | 6 | 19 | 4.8 | 14.5 | 0.00 | 0.00 | 0.00 | 81 | 1012.4 |
| 20260505210027 | 7 | 19 | 4.8 | 14.5 | 0.00 | 0.00 | 0.00 | 80 | 1012.4 |
| 20260505205024 | 7 | 19 | 4.8 | 14.5 | 0.00 | 0.00 | 0.00 | 80 | 1012.3 |
| 20260505204020 | 7 | 19 | 4.8 | 14.5 | 0.00 | 0.00 | 0.00 | 79 | 1012.3 |
| 20260505203016 | 7 | 19 | 4.8 | 14.5 | 0.00 | 0.00 | 0.00 | 78 | 1012.2 |
| 20260505202032 | 7 | 19 | 4.8 | 14.5 | 0.00 | 0.00 | 0.00 | 77 | 1012.2 |
| 20260505201028 | 7 | 19 | 4.8 | 14.5 | 0.00 | 0.00 | 0.00 | 77 | 1012.3 |
| 20260505200024 | 8 | 19 | 4.8 | 14.5 | 0.00 | 0.00 | 0.00 | 76 | 1012.1 |
| 20260505195020 | 8 | 19 | 4.8 | 14.5 | 0.00 | 0.00 | 0.00 | 76 | 1012.1 |
| 20260505194016 | 8 | 19 | 4.8 | 14.5 | 0.00 | 0.00 | 0.00 | 76 | 1012.1 |
| 20260505193032 | 8 | 19 | 4.8 | 14.5 | 0.00 | 0.00 | 0.00 | 77 | 1012.0 |
| 20260505192028 | 8 | 19 | 4.8 | 14.5 | 0.00 | 0.00 | 0.00 | 76 | 1011.9 |
| 20260505191024 | 9 | 19 | 4.8 | 14.5 | 0.00 | 0.00 | 0.00 | 74 | 1011.9 |
| 20260505190020 | 9 | 19 | 4.8 | 14.5 | 0.00 | 0.00 | 0.00 | 73 | 1011.8 |
| 20260505185016 | 10 | 19 | 4.8 | 14.5 | 0.00 | 0.00 | 0.00 | 71 | 1011.7 |
| 20260505184032 | 10 | 19 | 4.8 | 14.5 | 0.00 | 0.00 | 0.00 | 69 | 1011.8 |
| 20260505183028 | 11 | 19 | 4.8 | 14.5 | 0.00 | 0.00 | 0.00 | 65 | 1011.7 |
| 20260505182025 | 12 | 19 | 4.8 | 14.5 | 0.00 | 0.00 | 0.00 | 62 | 1011.9 |
| 20260505181021 | 12 | 19 | 4.8 | 14.5 | 0.00 | 0.00 | 0.00 | 61 | 1011.8 |
| 20260505180017 | 13 | 19 | 4.8 | 14.5 | 0.00 | 0.00 | 0.00 | 60 | 1011.8 |
| 20260505175033 | 13 | 19 | 4.8 | 14.5 | 0.00 | 0.00 | 0.00 | 58 | 1011.6 |
| 20260505174029 | 14 | 19 | 4.8 | 14.5 | 0.00 | 0.00 | 0.00 | 54 | 1011.7 |
| 20260505173026 | 14 | 19 | 4.8 | 14.5 | 0.00 | 0.00 | 0.00 | 55 | 1011.6 |
| 20260505172022 | 13 | 19 | 4.8 | 14.5 | 0.00 | 0.00 | 0.00 | 55 | 1011.7 |